| time (UTC) | temp F | wind direction | speed knots | gust knots | rain 1hr in | rain 24hr in | rain mn in | humidity % | barometer mb |
| 20260906172020 | 96 | 45 | 1.7 | 4.3 | 0.00 | 0.00 | 0.00 | 47 | 1017.5 |
| 20260906171022 | 97 | 135 | 2.6 | 4.3 | 0.00 | 0.00 | 0.00 | 48 | 1017.7 |
| 20260906170022 | 97 | 158 | 1.7 | 6.1 | 0.00 | 0.00 | 0.00 | 48 | 1017.9 |
| 20260906165022 | 96 | 248 | 1.7 | 2.6 | 0.00 | 0.00 | 0.00 | 49 | 1017.9 |
| 20260906164022 | 96 | 315 | 2.6 | 7.0 | 0.00 | 0.00 | 0.00 | 49 | 1018.0 |
| 20260906163022 | 95 | 203 | 1.7 | 4.3 | 0.00 | 0.00 | 0.00 | 49 | 1018.1 |
| 20260906162022 | 95 | 293 | 0.9 | 4.3 | 0.00 | 0.00 | 0.00 | 50 | 1018.0 |
| 20260906161022 | 94 | 203 | 1.7 | 4.3 | 0.00 | 0.00 | 0.00 | 52 | 1017.9 |
| 20260906160042 | 93 | 68 | 2.6 | 5.2 | 0.00 | 0.00 | 0.00 | 54 | 1017.9 |
| 20260906155022 | 93 | 203 | 3.5 | 9.6 | 0.00 | 0.00 | 0.00 | 54 | 1017.8 |
| 20260906154022 | 92 | 45 | 1.7 | 5.2 | 0.00 | 0.00 | 0.00 | 55 | 1017.7 |
| 20260906153022 | 91 | 158 | 1.7 | 4.3 | 0.00 | 0.00 | 0.00 | 57 | 1017.6 |
| 20260906152022 | 91 | 113 | 3.5 | 7.0 | 0.00 | 0.00 | 0.00 | 57 | 1017.7 |
| 20260906151022 | 90 | 338 | 1.7 | 4.3 | 0.00 | 0.00 | 0.00 | 59 | 1017.6 |
| 20260906150021 | 89 | 158 | 1.7 | 5.2 | 0.00 | 0.00 | 0.00 | 60 | 1017.6 |
| 20260906145021 | 89 | 23 | 1.7 | 6.1 | 0.00 | 0.00 | 0.00 | 61 | 1017.6 |
| 20260906144042 | 88 | 135 | 2.6 | 6.1 | 0.00 | 0.00 | 0.00 | 60 | 1017.7 |
| 20260906143021 | 88 | 158 | 1.7 | 5.2 | 0.00 | 0.00 | 0.00 | 62 | 1017.8 |
| 20260906142022 | 87 | 90 | 1.7 | 4.3 | 0.00 | 0.00 | 0.00 | 62 | 1017.6 |
| 20260906141041 | 87 | 23 | 0.9 | 2.6 | 0.00 | 0.00 | 0.00 | 63 | 1017.6 |
| 20260906140022 | 86 | 68 | 1.7 | 3.5 | 0.00 | 0.00 | 0.00 | 63 | 1017.5 |
| 20260906135022 | 85 | 113 | 0.9 | 2.6 | 0.00 | 0.00 | 0.00 | 65 | 1017.4 |
| 20260906134122 | 84 | 23 | 0.9 | 3.5 | 0.00 | 0.00 | 0.00 | 66 | 1017.4 |
| 20260906133021 | 83 | 135 | 1.7 | 4.3 | 0.00 | 0.00 | 0.00 | 68 | 1017.2 |
| 20260906132021 | 82 | 135 | 0.9 | 2.6 | 0.00 | 0.00 | 0.00 | 71 | 1017.0 |
| 20260906131101 | 80 | 113 | 1.7 | 3.5 | 0.00 | 0.00 | 0.00 | 72 | 1016.8 |
| 20260906130022 | 80 | 113 | 1.7 | 5.2 | 0.00 | 0.00 | 0.00 | 73 | 1016.8 |
| 20260906125041 | 79 | 135 | 0.9 | 3.5 | 0.00 | 0.00 | 0.00 | 74 | 1016.7 |
| 20260906124021 | 79 | 135 | 0.9 | 1.7 | 0.00 | 0.00 | 0.00 | 75 | 1016.5 |
| 20260906123021 | 79 | 0.0 | 0.9 | 0.00 | 0.00 | 0.00 | 75 | 1016.6 | |
| 20260906122021 | 79 | 0.0 | 1.7 | 0.00 | 0.00 | 0.00 | 75 | 1016.5 | |
| 20260906121021 | 79 | 135 | 0.9 | 1.7 | 0.00 | 0.00 | 0.00 | 75 | 1016.3 |
| 20260906120021 | 79 | 135 | 0.9 | 1.7 | 0.00 | 0.00 | 0.00 | 75 | 1016.3 |
| 20260906115021 | 79 | 135 | 0.9 | 0.9 | 0.00 | 0.00 | 0.00 | 75 | 1016.5 |
| 20260906114021 | 79 | 135 | 0.9 | 1.7 | 0.00 | 0.00 | 0.00 | 75 | 1016.4 |
| 20260906113021 | 79 | 135 | 0.9 | 2.6 | 0.00 | 0.00 | 0.00 | 75 | 1016.4 |
| 20260906112021 | 79 | 135 | 0.9 | 1.7 | 0.00 | 0.00 | 0.00 | 75 | 1016.3 |
| 20260906111021 | 79 | 0.0 | 1.7 | 0.00 | 0.00 | 0.00 | 75 | 1016.2 | |
| 20260906110041 | 79 | 135 | 0.9 | 1.7 | 0.00 | 0.00 | 0.00 | 75 | 1016.2 |
| 20260906105021 | 79 | 135 | 0.9 | 1.7 | 0.00 | 0.00 | 0.00 | 75 | 1016.2 |
| 20260906104021 | 79 | 135 | 0.9 | 1.7 | 0.00 | 0.00 | 0.00 | 76 | 1016.2 |
| 20260906103041 | 78 | 135 | 0.9 | 1.7 | 0.00 | 0.00 | 0.00 | 76 | 1016.1 |
| 20260906102021 | 78 | 0.0 | 0.9 | 0.00 | 0.00 | 0.00 | 76 | 1016.1 | |
| 20260906101021 | 79 | 0.0 | 0.9 | 0.00 | 0.00 | 0.00 | 75 | 1016.1 | |
| 20260906100021 | 79 | 0.0 | 0.9 | 0.00 | 0.00 | 0.00 | 75 | 1016.0 | |
| 20260906095021 | 79 | 0.0 | 0.9 | 0.00 | 0.00 | 0.00 | 75 | 1016.0 | |
| 20260906094021 | 79 | 0.0 | 1.7 | 0.00 | 0.00 | 0.00 | 75 | 1015.9 | |
| 20260906093021 | 79 | 0.0 | 0.9 | 0.00 | 0.00 | 0.00 | 74 | 1016.0 | |
| 20260906092041 | 79 | 135 | 0.9 | 1.7 | 0.00 | 0.00 | 0.00 | 74 | 1016.0 |
| 20260906091041 | 79 | 135 | 0.9 | 1.7 | 0.00 | 0.00 | 0.00 | 75 | 1016.0 |
| 20260906090021 | 79 | 0.0 | 0.0 | 0.00 | 0.00 | 0.00 | 74 | 1015.7 | |
| 20260906085041 | 79 | 0.0 | 0.0 | 0.00 | 0.00 | 0.00 | 73 | 1015.8 | |
| 20260906084041 | 79 | 0.0 | 0.9 | 0.00 | 0.00 | 0.00 | 73 | 1015.7 | |
| 20260906083101 | 80 | 0.0 | 0.9 | 0.00 | 0.00 | 0.00 | 72 | 1015.6 | |
| 20260906082020 | 80 | 0.0 | 0.9 | 0.00 | 0.00 | 0.00 | 72 | 1015.6 | |
| 20260906081021 | 80 | 0.0 | 0.9 | 0.00 | 0.00 | 0.00 | 72 | 1015.7 | |
| 20260906080021 | 80 | 0.0 | 0.0 | 0.00 | 0.00 | 0.00 | 71 | 1015.6 | |
| 20260906075021 | 80 | 0.0 | 0.0 | 0.00 | 0.00 | 0.00 | 71 | 1015.7 | |
| 20260906074021 | 81 | 0.0 | 0.0 | 0.00 | 0.00 | 0.00 | 70 | 1015.6 | |
| 20260906073021 | 81 | 0.0 | 0.9 | 0.00 | 0.00 | 0.00 | 70 | 1015.6 | |
| 20260906072041 | 82 | 0.0 | 0.0 | 0.00 | 0.00 | 0.00 | 69 | 1015.7 | |
| 20260906071021 | 82 | 0.0 | 0.9 | 0.00 | 0.00 | 0.00 | 68 | 1015.7 | |
| 20260906070021 | 82 | 0.0 | 0.9 | 0.00 | 0.00 | 0.00 | 68 | 1015.7 | |
| 20260906065041 | 83 | 0.0 | 0.9 | 0.00 | 0.00 | 0.00 | 66 | 1015.8 | |
| 20260906064041 | 83 | 0.0 | 0.9 | 0.00 | 0.00 | 0.00 | 65 | 1015.8 | |
| 20260906063020 | 84 | 0.0 | 0.9 | 0.00 | 0.00 | 0.00 | 64 | 1015.9 | |
| 20260906062040 | 84 | 135 | 0.9 | 1.7 | 0.00 | 0.00 | 0.00 | 63 | 1016.0 |
| 20260906061021 | 84 | 135 | 0.9 | 3.5 | 0.00 | 0.00 | 0.00 | 63 | 1016.0 |
| 20260906060020 | 84 | 135 | 0.9 | 1.7 | 0.00 | 0.00 | 0.00 | 63 | 1016.0 |
| 20260906055020 | 85 | 135 | 0.9 | 1.7 | 0.00 | 0.00 | 0.00 | 63 | 1016.2 |
| 20260906054100 | 85 | 135 | 0.9 | 1.7 | 0.00 | 0.00 | 0.00 | 62 | 1016.3 |
| 20260906053040 | 85 | 135 | 0.9 | 1.7 | 0.00 | 0.00 | 0.00 | 62 | 1016.3 |
| 20260906052021 | 85 | 135 | 0.9 | 1.7 | 0.00 | 0.00 | 0.00 | 63 | 1016.3 |
| 20260906051020 | 85 | 135 | 0.9 | 1.7 | 0.00 | 0.00 | 0.00 | 63 | 1016.3 |
| 20260906050020 | 85 | 135 | 0.9 | 1.7 | 0.00 | 0.00 | 0.00 | 63 | 1016.2 |
| 20260906045021 | 86 | 135 | 0.9 | 1.7 | 0.00 | 0.00 | 0.00 | 63 | 1016.2 |
| 20260906044022 | 86 | 135 | 0.9 | 2.6 | 0.00 | 0.00 | 0.00 | 63 | 1016.3 |
| 20260906043042 | 86 | 0.0 | 0.9 | 0.00 | 0.00 | 0.00 | 63 | 1016.2 | |
| 20260906042022 | 86 | 135 | 0.9 | 1.7 | 0.00 | 0.00 | 0.00 | 63 | 1016.1 |
| 20260906041021 | 87 | 0.0 | 0.9 | 0.00 | 0.00 | 0.00 | 62 | 1015.9 | |
| 20260906040022 | 87 | 135 | 0.9 | 0.9 | 0.00 | 0.00 | 0.00 | 61 | 1016.0 |
| 20260906035022 | 87 | 135 | 0.9 | 3.5 | 0.00 | 0.00 | 0.00 | 61 | 1015.8 |
| 20260906034041 | 87 | 113 | 0.9 | 1.7 | 0.00 | 0.00 | 0.00 | 61 | 1015.7 |
| 20260906033021 | 88 | 113 | 0.9 | 1.7 | 0.00 | 0.00 | 0.00 | 60 | 1015.7 |
| 20260906032021 | 88 | 113 | 0.9 | 2.6 | 0.00 | 0.00 | 0.00 | 60 | 1015.6 |
| 20260906031042 | 88 | 113 | 0.9 | 4.3 | 0.00 | 0.00 | 0.00 | 60 | 1015.6 |
| 20260906030021 | 88 | 113 | 0.9 | 1.7 | 0.00 | 0.00 | 0.00 | 60 | 1015.3 |
| 20260906025021 | 88 | 113 | 0.9 | 1.7 | 0.00 | 0.00 | 0.00 | 59 | 1015.2 |
| 20260906024022 | 89 | 0.0 | 0.9 | 0.00 | 0.00 | 0.00 | 59 | 1015.1 | |
| 20260906023022 | 89 | 113 | 0.9 | 2.6 | 0.00 | 0.00 | 0.00 | 58 | 1014.8 |
| 20260906022041 | 90 | 113 | 0.9 | 1.7 | 0.00 | 0.00 | 0.00 | 57 | 1014.8 |
| 20260906021021 | 90 | 135 | 0.9 | 2.6 | 0.00 | 0.00 | 0.00 | 57 | 1014.7 |
| 20260906020022 | 90 | 135 | 0.9 | 1.7 | 0.00 | 0.00 | 0.00 | 57 | 1014.4 |
| 20260906015022 | 90 | 0.0 | 1.7 | 0.00 | 0.00 | 0.00 | 56 | 1014.4 | |
| 20260906014021 | 91 | 135 | 0.9 | 0.9 | 0.00 | 0.00 | 0.00 | 55 | 1014.2 |
| 20260906013021 | 91 | 135 | 0.9 | 2.6 | 0.00 | 0.00 | 0.00 | 55 | 1014.0 |
| 20260906012021 | 91 | 0.0 | 1.7 | 0.00 | 0.00 | 0.00 | 54 | 1013.9 | |
| 20260906011021 | 91 | 270 | 0.9 | 2.6 | 0.00 | 0.00 | 0.00 | 52 | 1013.9 |
| 20260906010022 | 92 | 225 | 0.9 | 1.7 | 0.00 | 0.00 | 0.00 | 51 | 1013.8 |
| 20260906005021 | 92 | 225 | 0.9 | 1.7 | 0.00 | 0.00 | 0.00 | 49 | 1013.9 |
| 20260906004021 | 93 | 0.0 | 0.0 | 0.00 | 0.00 | 0.00 | 46 | 1013.7 | |
| 20260906003021 | 94 | 0.0 | 0.0 | 0.00 | 0.00 | 0.00 | 45 | 1013.8 | |
| 20260906002101 | 95 | 0.0 | 0.9 | 0.00 | 0.00 | 0.00 | 44 | 1013.8 | |
| 20260906001021 | 95 | 0.0 | 0.9 | 0.00 | 0.00 | 0.00 | 43 | 1013.8 | |
| 20260906000021 | 96 | 225 | 0.9 | 2.6 | 0.00 | 0.00 | 0.00 | 42 | 1013.8 |
| 20260905235021 | 96 | 225 | 0.9 | 1.7 | 0.00 | 0.00 | 0.00 | 41 | 1013.7 |
| 20260905234021 | 97 | 158 | 1.7 | 4.3 | 0.00 | 0.00 | 0.00 | 40 | 1013.8 |
| 20260905233021 | 97 | 158 | 1.7 | 3.5 | 0.00 | 0.00 | 0.00 | 40 | 1013.8 |
| 20260905232021 | 98 | 158 | 1.7 | 3.5 | 0.00 | 0.00 | 0.00 | 39 | 1013.7 |
| 20260905231021 | 98 | 158 | 0.9 | 1.7 | 0.00 | 0.00 | 0.00 | 38 | 1013.8 |
| 20260905230021 | 98 | 158 | 0.9 | 3.5 | 0.00 | 0.00 | 0.00 | 38 | 1013.7 |
| 20260905225021 | 98 | 158 | 0.9 | 4.3 | 0.00 | 0.00 | 0.00 | 38 | 1013.7 |
| 20260905224041 | 98 | 225 | 1.7 | 4.3 | 0.00 | 0.00 | 0.00 | 38 | 1013.7 |
| 20260905223021 | 99 | 225 | 0.9 | 3.5 | 0.00 | 0.00 | 0.00 | 37 | 1013.8 |
| 20260905222021 | 99 | 135 | 1.7 | 3.5 | 0.00 | 0.00 | 0.00 | 37 | 1013.9 |
| 20260905221021 | 99 | 225 | 1.7 | 3.5 | 0.00 | 0.00 | 0.00 | 36 | 1014.1 |
| 20260905220021 | 99 | 158 | 2.6 | 3.5 | 0.00 | 0.00 | 0.00 | 36 | 1014.1 |
| 20260905215021 | 100 | 225 | 1.7 | 5.2 | 0.00 | 0.00 | 0.00 | 36 | 1014.2 |
| 20260905214041 | 100 | 203 | 1.7 | 3.5 | 0.00 | 0.00 | 0.00 | 36 | 1014.3 |
| 20260905213020 | 100 | 113 | 2.6 | 6.1 | 0.00 | 0.00 | 0.00 | 36 | 1014.5 |
| 20260905212021 | 100 | 203 | 1.7 | 4.3 | 0.00 | 0.00 | 0.00 | 35 | 1014.4 |
| 20260905211021 | 101 | 315 | 0.9 | 2.6 | 0.00 | 0.00 | 0.00 | 34 | 1014.6 |
| 20260905210021 | 101 | 158 | 1.7 | 4.3 | 0.00 | 0.00 | 0.00 | 35 | 1014.7 |
| 20260905205021 | 100 | 338 | 2.6 | 5.2 | 0.00 | 0.00 | 0.00 | 34 | 1014.8 |
| 20260905204021 | 100 | 203 | 2.6 | 7.0 | 0.00 | 0.00 | 0.00 | 34 | 1015.0 |
| 20260905203021 | 101 | 180 | 3.5 | 7.8 | 0.00 | 0.00 | 0.00 | 34 | 1015.2 |
| 20260905202021 | 101 | 180 | 2.6 | 6.1 | 0.00 | 0.00 | 0.00 | 35 | 1015.3 |
| 20260905201021 | 101 | 225 | 1.7 | 4.3 | 0.00 | 0.00 | 0.00 | 36 | 1015.4 |
| 20260905200141 | 100 | 180 | 3.5 | 7.0 | 0.00 | 0.00 | 0.00 | 36 | 1015.6 |
| 20260905195021 | 100 | 158 | 2.6 | 5.2 | 0.00 | 0.00 | 0.00 | 35 | 1015.7 |
| 20260905194020 | 100 | 113 | 3.5 | 7.8 | 0.00 | 0.00 | 0.00 | 36 | 1015.7 |
| 20260905193021 | 99 | 45 | 1.7 | 3.5 | 0.00 | 0.00 | 0.00 | 38 | 1015.8 |
| 20260905192021 | 99 | 135 | 3.5 | 7.0 | 0.00 | 0.00 | 0.00 | 37 | 1015.9 |
| 20260905191021 | 99 | 158 | 1.7 | 4.3 | 0.00 | 0.00 | 0.00 | 39 | 1016.0 |
| 20260905190020 | 99 | 180 | 2.6 | 6.1 | 0.00 | 0.00 | 0.00 | 40 | 1016.0 |
| 20260905185020 | 98 | 180 | 1.7 | 4.3 | 0.00 | 0.00 | 0.00 | 40 | 1016.1 |
| 20260905184020 | 98 | 90 | 3.5 | 7.0 | 0.00 | 0.00 | 0.00 | 39 | 1016.3 |
| 20260905183020 | 98 | 158 | 3.5 | 8.7 | 0.00 | 0.00 | 0.00 | 42 | 1016.4 |
| 20260905182020 | 98 | 113 | 2.6 | 5.2 | 0.00 | 0.00 | 0.00 | 42 | 1016.6 |
| 20260905181021 | 98 | 203 | 3.5 | 9.6 | 0.00 | 0.00 | 0.00 | 43 | 1016.8 |
| 20260905180020 | 98 | 158 | 3.5 | 7.0 | 0.00 | 0.00 | 0.00 | 41 | 1017.0 |
| 20260905175021 | 98 | 158 | 1.7 | 4.3 | 0.00 | 0.00 | 0.00 | 42 | 1017.1 |
| 20260905174020 | 97 | 180 | 2.6 | 7.0 | 0.00 | 0.00 | 0.00 | 42 | 1017.1 |
| 20260905173040 | 97 | 135 | 2.6 | 6.1 | 0.00 | 0.00 | 0.00 | 43 | 1017.3 |